DW5621 Weather Reports


time (UTC)temp
C
wind
direction
speed
KPH
gust
KPH
rain 1hr
cm
rain 24hr
cm
rain mn
cm
humidity
%
barometer
mb
20260510140043 12 32 8.0 22.5 0.00 0.00 0.00 63 1016.0
20260510135504 12 36 6.4 20.9 0.00 0.00 0.00 63 1016.0
20260510134543 12 50 6.4 20.9 0.00 0.00 0.00 63 1016.1
20260510133643 12 59 6.4 27.4 0.00 0.00 0.00 63 1016.0
20260510132804 12 69 6.4 27.4 0.00 0.00 0.00 63 1016.0
20260510131904 12 55 6.4 25.7 0.00 0.00 0.00 64 1016.1
20260510130943 12 58 6.4 25.7 0.00 0.00 0.00 65 1016.2
20260510130104 12 55 6.4 22.5 0.00 0.00 0.00 65 1016.3
20260510125443 12 58 8.0 22.5 0.00 0.00 0.00 65 1016.4
20260510124543 12 90 4.8 22.5 0.00 0.00 0.00 65 1016.4
20260510123643 12 68 6.4 20.9 0.00 0.00 0.00 66 1017.1
20260510122743 12 39 6.4 25.7 0.00 0.00 0.00 65 1016.6
20260510121843 12 19 8.0 25.7 0.00 0.00 0.00 66 1016.6
20260510120943 12 33 6.4 25.7 0.00 0.00 0.00 65 1016.6
20260510120043 12 26 6.4 20.9 0.00 0.00 0.00 66 1016.7
20260510115443 12 22 8.0 25.7 0.00 0.00 0.00 66 1016.6
20260510114543 12 45 6.4 25.7 0.00 0.00 0.00 65 1016.7
20260510113643 12 46 6.4 19.3 0.00 0.00 0.00 65 1016.9
20260510112804 12 38 6.4 22.5 0.00 0.00 0.00 65 1017.1
20260510111843 12 29 6.4 22.5 0.00 0.00 0.00 65 1017.1
20260510110943 12 27 6.4 20.9 0.00 0.00 0.00 65 1017.3
20260510110043 12 34 4.8 20.9 0.00 0.00 0.00 65 1017.2
20260510105443 12 42 6.4 19.3 0.00 0.00 0.00 66 1017.1
20260510104543 12 23 8.0 20.9 0.00 0.00 0.00 66 1017.2
20260510103643 12 21 6.4 25.7 0.00 0.00 0.00 65 1017.1
20260510102804 12 22 8.0 25.7 0.00 0.00 0.00 65 1017.2
20260510101842 12 31 8.0 25.7 0.00 0.00 0.00 66 1017.1
20260510100942 12 27 8.0 22.5 0.00 0.00 0.00 66 1017.2
20260510100043 12 20 6.4 22.5 0.00 0.00 0.00 67 1017.1
20260510095443 12 30 6.4 20.9 0.00 0.00 0.00 67 1017.2
20260510094603 12 23 6.4 27.4 0.00 0.00 0.00 68 1017.1
20260510093703 12 31 8.0 27.4 0.00 0.00 0.00 69 1017.1
20260510092804 12 36 6.4 20.9 0.00 0.00 0.00 69 1017.1
20260510090942 12 31 6.4 25.7 0.00 0.00 0.00 70 1017.1
20260510090042 12 28 8.0 22.5 0.00 0.00 0.00 70 1017.3
20260510085442 12 32 8.0 22.5 0.00 0.00 0.00 70 1017.3
20260510084555 11 33 8.0 25.7 0.00 0.00 0.00 71 1017.5
20260510083704 11 37 6.4 25.7 0.00 0.00 0.00 71 1017.5
20260510082742 11 48 6.4 25.7 0.00 0.00 0.00 72 1017.6
20260510081842 11 50 8.0 22.5 0.00 0.00 0.00 72 1017.6
20260510080942 11 30 8.0 29.0 0.00 0.00 0.00 73 1017.5
20260510080042 11 29 6.4 20.9 0.00 0.00 0.00 75 1017.6
20260510075442 11 30 8.0 27.4 0.00 0.00 0.00 75 1017.6
20260510074542 11 34 6.4 27.4 0.00 0.00 0.00 76 1017.6
20260510073642 11 39 6.4 20.9 0.00 0.00 0.00 76 1017.5
20260510072742 11 33 6.4 20.9 0.00 0.00 0.00 77 1017.5
20260510071842 10 27 6.4 20.9 0.00 0.00 0.00 78 1017.6
20260510071003 10 31 8.0 20.9 0.00 0.00 0.00 79 1017.6
20260510070042 10 37 6.4 19.3 0.00 0.00 0.00 79 1017.5
20260510065442 10 27 6.4 22.5 0.00 0.00 0.00 80 1017.6
20260510064542 10 33 4.8 17.7 0.00 0.00 0.00 80 1017.5
20260510063642 10 38 6.4 20.9 0.00 0.00 0.00 80 1017.6
20260510062742 10 38 6.4 20.9 0.00 0.00 0.00 81 1017.3
20260510061842 10 31 4.8 20.9 0.00 0.00 0.00 81 1017.4
20260510060942 10 22 6.4 20.9 0.00 0.00 0.00 81 1017.4
20260510060042 10 10 6.4 20.9 0.00 0.00 0.00 82 1017.3
20260510055442 10 12 6.4 20.9 0.00 0.00 0.00 82 1017.2
20260510054542 10 25 4.8 20.9 0.00 0.00 0.00 82 1017.1
20260510053642 10 18 6.4 22.5 0.00 0.00 0.00 82 1017.0
20260510052742 10 20 6.4 22.5 0.00 0.00 0.00 82 1016.9
20260510051842 9 20 6.4 20.9 0.00 0.00 0.00 82 1016.9
20260510050942 9 13 6.4 22.5 0.00 0.00 0.00 83 1017.0
20260510050103 9 19 4.8 22.5 0.00 0.00 0.00 83 1017.0
20260510045442 9 15 6.4 17.7 0.00 0.00 0.00 83 1017.0
20260510044542 9 30 6.4 20.9 0.00 0.00 0.00 83 1017.0
20260510043642 9 22 4.8 19.3 0.00 0.00 0.00 83 1016.9
20260510042742 9 19 4.8 19.3 0.00 0.00 0.00 84 1017.1
20260510041903 9 20 3.2 16.1 0.00 0.00 0.00 84 1017.1
20260510040942 9 24 3.2 12.9 0.00 0.00 0.00 84 1017.2
20260510040103 9 33 3.2 12.9 0.00 0.00 0.00 84 1017.2
20260510035442 9 25 4.8 12.9 0.00 0.00 0.00 84 1017.2
20260510034542 9 29 4.8 17.7 0.00 0.00 0.00 84 1017.3
20260510033642 9 24 3.2 12.9 0.00 0.00 0.00 84 1017.4
20260510032742 9 23 4.8 12.9 0.00 0.00 0.00 84 1017.5
20260510031903 9 14 4.8 17.7 0.00 0.00 0.00 84 1017.5
20260510030942 9 17 4.8 19.3 0.00 0.00 0.00 84 1017.5
20260510030042 9 17 4.8 19.3 0.00 0.00 0.00 84 1017.5
20260510025442 9 16 4.8 19.3 0.00 0.00 0.00 84 1017.6
20260510024542 9 15 4.8 16.1 0.00 0.00 0.00 84 1017.6
20260510023642 9 17 4.8 19.3 0.00 0.00 0.00 83 1017.5
20260510022742 9 15 4.8 19.3 0.00 0.00 0.00 83 1017.4
20260510021903 9 9 6.4 19.3 0.00 0.00 0.00 82 1017.4
20260510020942 9 17 6.4 19.3 0.00 0.00 0.00 81 1017.5
20260510020042 10 26 3.2 16.1 0.00 0.00 0.00 80 1017.7
20260510015442 10 21 3.2 16.1 0.00 0.00 0.00 79 1017.9
20260510014542 10 24 3.2 16.1 0.00 0.00 0.00 78 1017.9
20260510013642 10 32 4.8 17.7 0.00 0.00 0.00 77 1017.8
20260510012742 10 37 3.2 11.3 0.00 0.00 0.00 76 1017.8
20260510011842 10 5 4.8 16.1 0.00 0.00 0.00 75 1017.8
20260510010942 10 18 3.2 17.7 0.00 0.00 0.00 75 1017.6
20260510010042 10 30 3.2 17.7 0.00 0.00 0.00 75 1017.5
20260510005442 10 29 3.2 17.7 0.00 0.00 0.00 75 1017.6
20260510004542 11 30 3.2 19.3 0.00 0.00 0.00 74 1017.5
20260510003642 11 26 4.8 19.3 0.00 0.00 0.00 73 1017.6
20260510002742 11 20 4.8 16.1 0.00 0.00 0.00 72 1017.7
20260510001903 11 23 4.8 16.1 0.00 0.00 0.00 71 1017.7
20260510001003 11 22 4.8 17.7 0.00 0.00 0.00 70 1017.7
20260510000042 11 18 4.8 16.1 0.00 0.00 0.00 68 1017.8
20260509235442 11 22 3.2 16.1 0.00 0.00 0.00 67 1017.7
20260509234542 12 43 3.2 9.7 0.00 0.00 0.00 66 1017.7
20260509233642 12 36 3.2 12.9 0.00 0.00 0.00 65 1017.8
20260509232742 12 45 3.2 12.9 0.00 0.00 0.00 64 1017.9
20260509231842 12 43 3.2 12.9 0.00 0.00 0.00 63 1018.0
20260509230942 12 40 3.2 17.7 0.00 0.00 0.00 61 1018.0
20260509230043 12 36 3.2 17.7 0.00 0.00 0.00 60 1018.0
20260509225442 12 32 3.2 11.3 0.00 0.00 0.00 58 1018.0
20260509224542 12 33 3.2 11.3 0.00 0.00 0.00 58 1018.0
20260509223642 13 34 1.6 8.0 0.00 0.00 0.00 58 1017.8
20260509222742 13 53 0.0 6.4 0.00 0.00 0.00 58 1017.8
20260509221842 13 48 0.0 6.4 0.00 0.00 0.00 57 1017.7
20260509221003 13 50 1.6 6.4 0.00 0.00 0.00 58 1017.8
20260509220042 13 88 1.6 6.4 0.00 0.00 0.00 57 1017.9
20260509215442 13 125 1.6 6.4 0.00 0.00 0.00 57 1017.8
20260509214542 13 129 0.0 6.4 0.00 0.00 0.00 55 1017.9
20260509213642 13 135 0.0 8.0 0.00 0.00 0.00 54 1017.8
20260509212742 13 115 1.6 9.7 0.00 0.00 0.00 53 1017.6
20260509211903 14 106 1.6 9.7 0.00 0.00 0.00 53 1017.5
20260509210942 14 117 1.6 9.7 0.00 0.00 0.00 52 1017.3
20260509210042 14 111 1.6 17.7 0.00 0.00 0.00 51 1017.2
20260509205442 14 96 1.6 17.7 0.00 0.00 0.00 51 1017.3
20260509204542 14 85 1.6 11.3 0.00 0.00 0.00 49 1017.3
20260509203703 14 110 1.6 8.0 0.00 0.00 0.00 47 1017.3
20260509202742 15 132 1.6 9.7 0.00 0.00 0.00 46 1017.3
20260509201903 15 140 1.6 11.3 0.00 0.00 0.00 46 1017.2
20260509200942 15 104 1.6 16.1 0.00 0.00 0.00 45 1017.0
20260509200042 15 106 1.6 16.1 0.00 0.00 0.00 44 1017.0
20260509195442 15 134 1.6 9.7 0.00 0.00 0.00 43 1017.1
20260509194542 15 112 1.6 11.3 0.00 0.00 0.00 43 1017.0
20260509193642 15 120 3.2 11.3 0.00 0.00 0.00 42 1016.9
20260509192741 15 130 4.8 12.9 0.00 0.00 0.00 42 1016.7
20260509191842 15 147 4.8 16.1 0.00 0.00 0.00 41 1016.8
20260509190942 16 128 3.2 16.1 0.00 0.00 0.00 42 1016.7
20260509190042 16 134 4.8 17.7 0.00 0.00 0.00 40 1016.9
20260509185441 16 145 4.8 17.7 0.00 0.00 0.00 41 1016.8
20260509184542 16 140 4.8 17.7 0.00 0.00 0.00 41 1016.6
20260509183703 16 147 4.8 17.7 0.00 0.00 0.00 41 1016.6
20260509182741 16 148 4.8 17.7 0.00 0.00 0.00 41 1016.6
20260509181903 16 136 3.2 12.9 0.00 0.00 0.00 41 1016.6
20260509181003 17 132 4.8 16.1 0.00 0.00 0.00 40 1016.4
20260509180042 17 145 4.8 16.1 0.00 0.00 0.00 39 1016.2
20260509175442 17 128 4.8 20.9 0.00 0.00 0.00 39 1016.2
20260509174542 17 105 3.2 20.9 0.00 0.00 0.00 38 1016.2
20260509173703 17 112 4.8 20.9 0.00 0.00 0.00 37 1016.2
20260509172803 17 130 6.4 20.9 0.00 0.00 0.00 38 1016.1
20260509171842 17 109 4.8 17.7 0.00 0.00 0.00 38 1016.2
20260509170942 17 137 6.4 20.9 0.00 0.00 0.00 40 1016.3
20260509170042 17 154 6.4 22.5 0.00 0.00 0.00 44 1016.3
20260509165441 17 154 6.4 22.5 0.00 0.00 0.00 44 1016.3
20260509164542 18 140 6.4 25.7 0.00 0.00 0.00 44 1016.3
20260509163641 18 142 6.4 25.7 0.00 0.00 0.00 44 1016.3
20260509162742 18 137 6.4 25.7 0.00 0.00 0.00 44 1016.3
20260509161903 18 150 8.0 22.5 0.00 0.00 0.00 44 1016.4
20260509160941 18 150 8.0 29.0 0.00 0.00 0.00 44 1016.5
20260509160042 18 161 11.3 29.0 0.00 0.00 0.00 44 1016.6
20260509155441 18 163 9.7 29.0 0.00 0.00 0.00 44 1016.6
20260509154542 18 143 8.0 22.5 0.00 0.00 0.00 43 1016.6
20260509153641 19 149 8.0 20.9 0.00 0.00 0.00 43 1016.6
20260509152742 19 157 8.0 29.0 0.00 0.00 0.00 44 1016.5
20260509151902 19 162 11.3 29.0 0.00 0.00 0.00 43 1016.5
20260509151002 19 153 8.0 25.7 0.00 0.00 0.00 44 1016.5
20260509150041 19 158 8.0 19.3 0.00 0.00 0.00 44 1016.5
20260509145441 20 145 6.4 19.3 0.00 0.00 0.00 43 1016.5
20260509144542 20 153 8.0 20.9 0.00 0.00 0.00 43 1016.3
20260509143641 20 155 6.4 30.6 0.00 0.00 0.00 42 1016.2
20260509142741 20 156 8.0 35.4 0.00 0.00 0.00 43 1015.9
20260509141902 20 145 8.0 27.4 0.00 0.00 0.00 42 1016.0
20260509140941 20 76 4.8 20.9 0.00 0.00 0.00 38 1016.2